Weather History for Dallas Redbird, TX

Change the Weather History Date:

Monday, April 28, 2014

  Actual Average Record
Temperature  
Mean Temperature 74 °F -  
Max Temperature 82 °F 76 °F 89 °F (2005)
Min Temperature 66 °F 57 °F 41 °F (2008)
Cooling Degree Days 9    
Growing Degree Days 24 (Base 50)    
Moisture  
Dew Point 37 °F    
Average Humidity 26    
Maximum Humidity 37    
Minimum Humidity 16    
Precipitation  
Precipitation 0.00 in - - ()
Sea Level Pressure  
Sea Level Pressure 29.60 in    
Wind  
Wind Speed 9 mph (WNW)    
Max Wind Speed 16 mph    
Max Gust Speed 21 mph    
Visibility 9 miles    
Events      
Averages and records for this station are not official NWS values.
T = Trace of Precipitation, MM = Missing Value Source: NWS Daily Summary

Daily Weather History Graph

Daily Weather History Graph

Search for Another Location

Airport:

Trip Planner

Search our weather history database for the weather conditions in past years. The results will help you decide how hot, cold, wet, or windy it might be!

Date:

Astronomy

Apr. 28, 2014 Rise Set
Actual Time 6:43 AM CDT 8:06 PM CDT
Civil Twilight 6:17 AM CDT 8:33 PM CDT
Nautical Twilight 5:46 AM CDT 9:04 PM CDT
Astronomical Twilight 5:13 AM CDT 9:36 PM CDT
Moon 6:19 AM CDT (4/28) 7:47 PM CDT (4/28)
Length of Visible Light 14h 15m
Length of Day
13h 23m
Waning Crescent, 0% of the Moon is Illuminated
Apr 28
Waning Crescent
Apr 29
New
May 6
First Quarter
May 14
Full
May 21
Last Quarter

Hourly Weather History & Observations

Time (CDT) Temp. Dew Point Humidity Pressure Visibility Wind Dir Wind Speed Gust Speed Precip Events Conditions
1:53 AM 78.1 °F 28.9 °F 17% 29.51 in 10.0 mi SW 3.5 mph - N/A   Clear
3:53 AM 73.0 °F 30.0 °F 20% 29.55 in 10.0 mi WSW 4.6 mph - N/A   Partly Cloudy
5:53 AM 72.0 °F 25.0 °F 17% 29.56 in 10.0 mi West 11.5 mph - N/A   Clear
6:53 AM 66.9 °F 30.0 °F 25% 29.57 in 9.0 mi WNW 10.4 mph - N/A   Clear
7:19 AM 66.2 °F 35.6 °F 32% 29.62 in 8.0 mi WNW 12.7 mph - N/A   Mostly Cloudy
7:53 AM 66.0 °F 37.0 °F 34% 29.62 in 6.0 mi WNW 15.0 mph - N/A   Haze
8:26 AM 66.2 °F 39.2 °F 37% 29.65 in 5.0 mi WNW 12.7 mph - N/A   Haze
9:53 AM 71.1 °F 39.0 °F 31% 29.67 in 10.0 mi NNW 13.8 mph - N/A   Clear
10:53 AM 73.9 °F 39.0 °F 28% 29.67 in 10.0 mi NNW 12.7 mph - N/A   Clear
11:53 AM 75.0 °F 41.0 °F 29% 29.68 in 10.0 mi NW 9.2 mph - N/A   Clear
1:53 PM 80.1 °F 39.9 °F 24% 29.65 in 10.0 mi SW 8.1 mph - N/A   Clear
2:53 PM 80.1 °F 39.0 °F 23% 29.63 in 10.0 mi Variable 6.9 mph - N/A   Clear
3:53 PM 82.9 °F 37.0 °F 19% 29.61 in 10.0 mi West 16.1 mph 20.7 mph N/A   Clear
5:53 PM 82.9 °F 32.0 °F 16% 29.54 in 10.0 mi West 3.5 mph - N/A   Clear
6:53 PM 79.0 °F 39.9 °F 25% 29.52 in 10.0 mi ESE 4.6 mph - N/A   Clear
7:53 PM 79.0 °F 37.9 °F 23% 29.53 in 10.0 mi ENE 6.9 mph - N/A   Clear
8:53 PM 75.9 °F 39.9 °F 27% 29.57 in 10.0 mi ENE 8.1 mph - N/A   Clear
10:53 PM 73.0 °F 42.1 °F 33% 29.61 in 10.0 mi ENE 9.2 mph - N/A   Clear
11:53 PM 72.0 °F 44.1 °F 37% 29.62 in 10.0 mi NE 10.4 mph - N/A   Overcast